THA1123 VTUU-VTBS

Flight info

Callsign THA1123
Flight time N/A
Altitude 34000
Route ASABO1B ASABO Y20 GRASO Y13 RUKSA EASTE1C
Aircraft B77W/H-SDE1E2E3FGHIJ2J3J4J5M1RWXY/LB1D1

Departure

Time 2026-05-05 09:01
Airport Ubon Ratchathani Airport (VTUU)

Arrival

Time N/A
Airport Suvarnabhumi Airport (VTBS)
Time Latitude Longitude Altitude Speed Heading
2026-05-05 08:34 15.24733 104.86975 411 ft 0 kts 141°
2026-05-05 08:49 15.24746 104.86965 404 ft 2 kts 141°
2026-05-05 08:49 15.24758 104.86954 409 ft 2 kts 145°
2026-05-05 08:49 15.24774 104.86950 404 ft 2 kts 207°
2026-05-05 08:50 15.24786 104.86960 402 ft 2 kts 229°
2026-05-05 08:50 15.24797 104.86973 402 ft 2 kts 231°
2026-05-05 08:50 15.24807 104.86987 402 ft 2 kts 231°
2026-05-05 08:50 15.24813 104.86995 402 ft 1 kts 231°
2026-05-05 08:51 15.24816 104.86998 402 ft 0 kts 231°
2026-05-05 08:55 15.24815 104.86997 402 ft 0 kts 231°
2026-05-05 08:55 15.24811 104.86991 402 ft 2 kts 231°
2026-05-05 08:55 15.24801 104.86978 402 ft 3 kts 233°
2026-05-05 08:55 15.24788 104.86959 402 ft 4 kts 232°
2026-05-05 08:56 15.24758 104.86924 410 ft 10 kts 229°
2026-05-05 08:56 15.24729 104.86863 404 ft 10 kts 277°
2026-05-05 08:56 15.24771 104.86806 410 ft 10 kts 320°
2026-05-05 08:56 15.24826 104.86760 408 ft 10 kts 321°
2026-05-05 08:57 15.24854 104.86698 409 ft 10 kts 257°
2026-05-05 08:57 15.24816 104.86635 408 ft 10 kts 232°
2026-05-05 08:57 15.24771 104.86576 411 ft 10 kts 232°
2026-05-05 08:57 15.24726 104.86517 406 ft 10 kts 231°
2026-05-05 08:58 15.24680 104.86459 406 ft 10 kts 231°
2026-05-05 08:58 15.24632 104.86397 410 ft 12 kts 231°
2026-05-05 08:58 15.24573 104.86320 410 ft 16 kts 231°
2026-05-05 08:58 15.24506 104.86232 405 ft 16 kts 231°
2026-05-05 08:59 15.24438 104.86145 404 ft 16 kts 231°
2026-05-05 08:59 15.24363 104.86059 409 ft 16 kts 213°
2026-05-05 08:59 15.24285 104.86002 403 ft 10 kts 236°
2026-05-05 08:59 15.24290 104.85976 404 ft 4 kts 318°
2026-05-05 09:00 15.24319 104.85993 404 ft 6 kts 49°
2026-05-05 09:00 15.24325 104.86001 414 ft 2 kts 50°
2026-05-05 09:00 15.24431 104.86137 408 ft 55 kts 51°
2026-05-05 09:00 15.24853 104.86683 410 ft 136 kts 51°
2026-05-05 09:01 15.25583 104.87626 448 ft 193 kts 52°
2026-05-05 09:01 15.26417 104.88721 1178 ft 194 kts 51°
2026-05-05 09:01 15.27238 104.89806 2137 ft 190 kts 52°
2026-05-05 09:01 15.28252 104.90721 2647 ft 208 kts 20°
2026-05-05 09:02 15.29763 104.90716 2917 ft 236 kts 336°
2026-05-05 09:02 15.31003 104.89583 3589 ft 246 kts 300°
2026-05-05 09:02 15.31470 104.87887 4439 ft 249 kts 270°
2026-05-05 09:02 15.31315 104.86089 5300 ft 253 kts 261°
2026-05-05 09:03 15.31036 104.84280 6195 ft 256 kts 261°
2026-05-05 09:03 15.30769 104.82442 7048 ft 260 kts 262°
2026-05-05 09:03 15.30524 104.80568 7869 ft 265 kts 262°
2026-05-05 09:03 15.30291 104.78658 8722 ft 269 kts 263°
2026-05-05 09:04 15.30061 104.76717 9595 ft 273 kts 263°
2026-05-05 09:04 15.29653 104.74797 10273 ft 277 kts 248°
2026-05-05 09:04 15.28831 104.72975 11069 ft 280 kts 242°
2026-05-05 09:04 15.27922 104.71192 12045 ft 281 kts 241°
2026-05-05 09:05 15.27009 104.69402 13081 ft 282 kts 241°
2026-05-05 09:05 15.26103 104.67585 14037 ft 286 kts 242°
2026-05-05 09:05 15.25201 104.65740 14946 ft 289 kts 242°
2026-05-05 09:05 15.24297 104.63867 15869 ft 292 kts 243°
2026-05-05 09:06 15.23388 104.61978 16807 ft 295 kts 243°
2026-05-05 09:06 15.22493 104.60058 17735 ft 298 kts 248°
2026-05-05 09:06 15.22042 104.57930 18376 ft 312 kts 263°
2026-05-05 09:06 15.21859 104.55619 18570 ft 341 kts 265°
2026-05-05 09:07 15.21694 104.53069 18757 ft 369 kts 265°
2026-05-05 09:07 15.21510 104.50330 18937 ft 394 kts 265°
2026-05-05 09:07 15.21300 104.47455 19400 ft 406 kts 265°
2026-05-05 09:07 15.21071 104.44510 20020 ft 414 kts 265°
2026-05-05 09:08 15.20829 104.41524 20755 ft 418 kts 265°
2026-05-05 09:08 15.20582 104.38515 21534 ft 421 kts 265°
2026-05-05 09:08 15.20332 104.35482 22280 ft 425 kts 265°
2026-05-05 09:08 15.20077 104.32418 22982 ft 429 kts 265°
2026-05-05 09:09 15.19817 104.29324 23621 ft 434 kts 265°
2026-05-05 09:09 15.19552 104.26197 24186 ft 438 kts 265°
2026-05-05 09:09 15.19286 104.23048 24783 ft 441 kts 265°
2026-05-05 09:09 15.19017 104.19873 25365 ft 444 kts 265°
2026-05-05 09:10 15.18746 104.16672 25914 ft 448 kts 265°
2026-05-05 09:10 15.18472 104.13437 26391 ft 454 kts 265°
2026-05-05 09:10 15.18194 104.10166 26894 ft 459 kts 265°
2026-05-05 09:10 15.17913 104.06863 27422 ft 462 kts 265°
2026-05-05 09:11 15.17631 104.03542 27986 ft 465 kts 265°
2026-05-05 09:11 15.17345 104.00195 28512 ft 469 kts 265°
2026-05-05 09:11 15.17066 103.96933 28997 ft 473 kts 264°
2026-05-05 09:11 15.16776 103.93538 29529 ft 475 kts 264°
2026-05-05 09:12 15.16484 103.90132 30174 ft 474 kts 264°
2026-05-05 09:12 15.16193 103.86745 30833 ft 471 kts 264°
2026-05-05 09:12 15.15903 103.83377 31513 ft 468 kts 264°
2026-05-05 09:12 15.15532 103.80045 32180 ft 465 kts 260°
2026-05-05 09:13 15.14887 103.76774 32824 ft 463 kts 255°
2026-05-05 09:13 15.13942 103.73598 33464 ft 461 kts 251°
2026-05-05 09:13 15.12907 103.70452 33876 ft 462 kts 251°
2026-05-05 09:14 15.10827 103.64185 33857 ft 459 kts 251°
2026-05-05 09:14 15.08774 103.57926 33873 ft 460 kts 251°
2026-05-05 09:15 15.06730 103.51638 33859 ft 461 kts 251°
2026-05-05 09:15 15.04687 103.45339 33861 ft 462 kts 251°
2026-05-05 09:16 15.02652 103.39073 33864 ft 463 kts 251°
2026-05-05 09:16 15.00594 103.32747 33862 ft 464 kts 251°
2026-05-05 09:17 14.98536 103.26428 33862 ft 464 kts 251°
2026-05-05 09:17 14.96475 103.20104 33862 ft 464 kts 251°
2026-05-05 09:18 14.94410 103.13776 33860 ft 465 kts 251°
2026-05-05 09:18 14.92341 103.07444 33859 ft 464 kts 251°
2026-05-05 09:19 14.90273 103.01118 33871 ft 465 kts 251°
2026-05-05 09:19 14.88236 102.94892 33872 ft 466 kts 251°
2026-05-05 09:20 14.86161 102.88530 33873 ft 467 kts 252°
2026-05-05 09:20 14.84186 102.82125 33868 ft 468 kts 252°
2026-05-05 09:21 14.82252 102.75738 33873 ft 469 kts 253°
2026-05-05 09:21 14.80290 102.69304 33869 ft 470 kts 253°
2026-05-05 09:22 14.78313 102.62863 33870 ft 471 kts 253°
2026-05-05 09:22 14.76329 102.56415 33874 ft 471 kts 253°
2026-05-05 09:23 14.74329 102.49921 33873 ft 471 kts 253°
2026-05-05 09:23 14.72343 102.43480 33879 ft 471 kts 253°
2026-05-05 09:24 14.70369 102.37083 33875 ft 470 kts 253°
2026-05-05 09:24 14.68382 102.30652 33875 ft 470 kts 253°
2026-05-05 09:25 14.66428 102.24335 33807 ft 452 kts 253°
2026-05-05 09:25 14.65477 102.21261 33425 ft 447 kts 253°
2026-05-05 09:25 14.64535 102.18221 32990 ft 442 kts 253°
2026-05-05 09:25 14.63603 102.15211 32530 ft 439 kts 253°
2026-05-05 09:26 14.62676 102.12217 32072 ft 436 kts 253°
2026-05-05 09:26 14.61755 102.09249 31621 ft 433 kts 252°
2026-05-05 09:26 14.60840 102.06298 31171 ft 430 kts 252°
2026-05-05 09:26 14.59931 102.03367 30717 ft 428 kts 253°
2026-05-05 09:27 14.59025 102.00450 30245 ft 426 kts 253°
2026-05-05 09:27 14.58158 101.97656 29774 ft 424 kts 253°
2026-05-05 09:27 14.57260 101.94767 29262 ft 421 kts 253°
2026-05-05 09:27 14.56354 101.91905 28775 ft 418 kts 251°
2026-05-05 09:28 14.55303 101.89121 28308 ft 414 kts 249°
2026-05-05 09:28 14.54206 101.86383 27854 ft 411 kts 248°
2026-05-05 09:28 14.53106 101.83675 27403 ft 408 kts 248°
2026-05-05 09:28 14.52012 101.80980 26951 ft 405 kts 248°
2026-05-05 09:29 14.50930 101.78306 26507 ft 403 kts 248°
2026-05-05 09:29 14.49858 101.75645 26066 ft 400 kts 248°
2026-05-05 09:29 14.48795 101.73000 25628 ft 398 kts 248°
2026-05-05 09:29 14.47752 101.70399 25170 ft 397 kts 248°
2026-05-05 09:30 14.46687 101.67742 24736 ft 395 kts 248°
2026-05-05 09:30 14.45652 101.65161 24299 ft 394 kts 248°
2026-05-05 09:30 14.44606 101.62553 23860 ft 393 kts 248°
2026-05-05 09:30 14.43564 101.59955 23410 ft 392 kts 248°
2026-05-05 09:31 14.42523 101.57360 22902 ft 390 kts 248°
2026-05-05 09:31 14.41489 101.54785 22447 ft 387 kts 248°
2026-05-05 09:31 14.40463 101.52230 22008 ft 385 kts 248°
2026-05-05 09:31 14.39442 101.49690 21573 ft 382 kts 248°
2026-05-05 09:32 14.38427 101.47165 21144 ft 379 kts 248°
2026-05-05 09:32 14.37420 101.44660 20694 ft 377 kts 248°
2026-05-05 09:32 14.36418 101.42166 20266 ft 375 kts 248°
2026-05-05 09:32 14.35422 101.39691 19836 ft 373 kts 248°
2026-05-05 09:33 14.34430 101.37226 19417 ft 371 kts 248°
2026-05-05 09:33 14.33442 101.34771 18979 ft 370 kts 248°
2026-05-05 09:33 14.32456 101.32323 18550 ft 369 kts 248°
2026-05-05 09:33 14.31460 101.29890 18098 ft 365 kts 245°
2026-05-05 09:34 14.30035 101.27751 17668 ft 361 kts 224°
2026-05-05 09:34 14.28153 101.26093 17382 ft 352 kts 219°
2026-05-05 09:34 14.26263 101.24522 17074 ft 348 kts 219°
2026-05-05 09:34 14.24389 101.22965 16777 ft 344 kts 219°
2026-05-05 09:35 14.22538 101.21418 16483 ft 341 kts 219°
2026-05-05 09:35 14.18893 101.18339 15917 ft 336 kts 220°
2026-05-05 09:35 14.17095 101.16812 15645 ft 334 kts 220°
2026-05-05 09:36 14.15305 101.15290 15351 ft 332 kts 220°
2026-05-05 09:36 14.13526 101.13776 15077 ft 331 kts 219°
2026-05-05 09:36 14.11755 101.12270 14800 ft 330 kts 219°
2026-05-05 09:36 14.10584 101.11274 14618 ft 329 kts 219°
2026-05-05 09:37 14.08820 101.09773 14328 ft 329 kts 219°
2026-05-05 09:37 14.06491 101.07808 13957 ft 322 kts 217°
2026-05-05 09:37 14.04526 101.06758 13644 ft 318 kts 196°
2026-05-05 09:37 14.02393 101.06214 13340 ft 314 kts 193°
2026-05-05 09:38 14.00280 101.05674 13021 ft 312 kts 194°
2026-05-05 09:38 13.98880 101.05301 12812 ft 310 kts 194°
2026-05-05 09:38 13.96829 101.04745 12510 ft 307 kts 194°
2026-05-05 09:38 13.94772 101.04181 12210 ft 305 kts 194°
2026-05-05 09:39 13.92706 101.03615 11921 ft 302 kts 194°
2026-05-05 09:39 13.90717 101.03070 11750 ft 297 kts 194°
2026-05-05 09:39 13.88718 101.02521 11510 ft 300 kts 194°
2026-05-05 09:39 13.86694 101.01965 11406 ft 299 kts 194°
2026-05-05 09:40 13.84784 101.01167 11387 ft 301 kts 217°
2026-05-05 09:40 13.83505 100.99563 11401 ft 307 kts 246°
2026-05-05 09:40 13.83026 100.97420 11416 ft 309 kts 267°
2026-05-05 09:40 13.83050 100.95222 11298 ft 305 kts 273°
2026-05-05 09:41 13.83519 100.93154 10930 ft 294 kts 299°
2026-05-05 09:41 13.84861 100.91636 10328 ft 289 kts 328°
2026-05-05 09:41 13.86712 100.90869 9701 ft 287 kts 349°
2026-05-05 09:41 13.88676 100.90684 9063 ft 282 kts
2026-05-05 09:42 13.90595 100.91009 8564 ft 275 kts 14°
2026-05-05 09:42 13.92423 100.91454 8294 ft 269 kts 14°
2026-05-05 09:42 13.94254 100.91894 7978 ft 270 kts 12°
2026-05-05 09:42 13.96112 100.91872 7632 ft 272 kts 341°
2026-05-05 09:43 13.97674 100.90775 7309 ft 278 kts 309°
2026-05-05 09:43 13.98735 100.89130 6973 ft 273 kts 297°
2026-05-05 09:43 13.99205 100.87285 6556 ft 263 kts 267°
2026-05-05 09:43 13.98778 100.85520 6215 ft 250 kts 240°
2026-05-05 09:44 13.97710 100.84150 5880 ft 245 kts 219°
2026-05-05 09:44 13.96228 100.83287 5537 ft 249 kts 199°
2026-05-05 09:44 13.94546 100.82774 5195 ft 256 kts 193°
2026-05-05 09:44 13.92842 100.82340 4896 ft 247 kts 193°
2026-05-05 09:45 13.91195 100.81917 4517 ft 240 kts 193°
2026-05-05 09:45 13.89621 100.81505 4277 ft 226 kts 193°
2026-05-05 09:45 13.88128 100.81112 3918 ft 219 kts 193°
2026-05-05 09:45 13.86693 100.80733 3635 ft 204 kts 193°
2026-05-05 09:46 13.85372 100.80382 3461 ft 192 kts 193°
2026-05-05 09:46 13.84084 100.80042 2953 ft 190 kts 193°
2026-05-05 09:46 13.82855 100.79721 2571 ft 172 kts 193°
2026-05-05 09:46 13.81754 100.79428 2403 ft 157 kts 194°
2026-05-05 09:47 13.80726 100.79155 2250 ft 151 kts 193°
2026-05-05 09:47 13.79702 100.78884 2042 ft 152 kts 194°
2026-05-05 09:47 13.78693 100.78616 1847 ft 147 kts 193°
2026-05-05 09:47 13.77711 100.78356 1652 ft 144 kts 194°
2026-05-05 09:48 13.76742 100.78101 1461 ft 144 kts 194°
2026-05-05 09:48 13.75785 100.77850 1298 ft 144 kts 194°
2026-05-05 09:48 13.74805 100.77590 1105 ft 145 kts 195°
2026-05-05 09:48 13.73833 100.77333 924 ft 143 kts 194°
2026-05-05 09:49 13.72868 100.77073 750 ft 143 kts 194°
2026-05-05 09:49 13.71881 100.76814 588 ft 150 kts 193°
2026-05-05 09:49 13.70882 100.76549 383 ft 146 kts 192°
2026-05-05 09:49 13.69902 100.76293 209 ft 150 kts 192°
2026-05-05 09:50 13.68884 100.76025 33 ft 150 kts 192°
2026-05-05 09:50 13.67945 100.75772 24 ft 123 kts 191°